Total_Precipitation_Accumulation
0.00 0.00 0.00 0.00 0.00 0.01 0.01 0.01 0.01 0.01 0.01 0.01 0.02 0.02 0.02 0.02 0.02 0.02 0.02 0.02 0.02 0.02 0.02 0.02 0.03 0.04 0.06 0.09 0.12 0.13 0.13 0.13 0.18 0.22 0.20 0.20 0.23 0.27 0.26 0.25 0.28 0.32 0.35
0.00 0.00 0.00 0.00 0.00 0.01 0.01 0.01 0.01 0.00 0.00 0.00 0.01 0.01 0.01 0.01 0.01 0.02 0.02 0.02 0.02 0.02 0.02 0.02 0.02 0.02 0.03 0.03 0.03 0.05 0.07 0.06 0.08 0.16 0.21 0.17 0.16 0.16 0.17 0.18 0.22 0.28 0.35
0.00 0.00 0.00 0.00 0.00 0.00 0.00 0.01 0.01 0.00 0.00 0.00 0.01 0.01 0.01 0.01 0.01 0.02 0.02 0.02 0.02 0.02 0.02 0.02 0.02 0.02 0.02 0.03 0.02 0.03 0.05 0.06 0.05 0.09 0.25 0.35 0.25 0.16 0.12 0.14 0.16 0.19 0.21
0.00 0.00 0.00 0.00 0.00 0.00 0.00 0.01 0.01 0.01 0.00 0.01 0.01 0.01 0.01 0.01 0.01 0.01 0.01 0.01 0.01 0.01 0.01 0.02 0.02 0.02 0.03 0.03 0.03 0.03 0.05 0.07 0.08 0.07 0.12 0.23 0.28 0.34 0.22 0.07 0.06 0.08 0.10
0.00 0.00 0.00 0.00 0.00 0.00 0.00 0.00 0.01 0.01 0.01 0.00 0.00 0.01 0.01 0.01 0.01 0.00 0.00 0.01 0.01 0.01 0.02 0.02 0.02 0.03 0.03 0.03 0.04 0.04 0.05 0.07 0.10 0.12 0.13 0.12 0.13 0.22 0.37 0.18 0.03 0.03 0.05
0.00 0.00 0.00 0.00 0.00 0.00 0.00 0.01 0.01 0.01 0.01 0.01 0.00 0.01 0.01 0.01 0.01 0.01 0.01 0.01 0.01 0.01 0.01 0.02 0.03 0.04 0.04 0.04 0.05 0.07 0.08 0.09 0.11 0.13 0.15 0.20 0.24 0.23 0.31 0.29 0.12 0.06 0.04
0.00 0.00 0.00 0.00 0.00 0.00 0.00 0.00 0.01 0.01 0.01 0.01 0.01 0.01 0.01 0.01 0.01 0.01 0.01 0.01 0.01 0.01 0.02 0.03 0.04 0.05 0.06 0.07 0.08 0.09 0.11 0.12 0.13 0.14 0.16 0.19 0.22 0.24 0.31 0.35 0.24 0.14 0.07
0.00 0.00 0.00 0.00 0.00 0.00 0.00 0.00 0.00 0.01 0.01 0.01 0.01 0.01 0.01 0.01 0.01 0.01 0.01 0.01 0.02 0.02 0.03 0.04 0.05 0.07 0.08 0.09 0.11 0.13 0.14 0.15 0.17 0.17 0.19 0.21 0.21 0.23 0.30 0.38 0.42 0.32 0.13
0.00 0.00 0.00 0.00 0.00 0.00 0.00 0.00 0.00 0.00 0.00 0.01 0.01 0.01 0.01 0.01 0.00 0.01 0.01 0.02 0.03 0.03 0.05 0.07 0.10 0.12 0.13 0.14 0.15 0.17 0.19 0.21 0.23 0.24 0.24 0.26 0.24 0.24 0.25 0.30 0.43 0.60 0.47
0.00 0.00 0.00 0.00 0.00 0.00 0.00 0.00 0.00 0.01 0.01 0.01 0.01 0.01 0.01 0.01 0.01 0.01 0.02 0.03 0.05 0.06 0.07 0.08 0.11 0.14 0.17 0.19 0.21 0.23 0.24 0.28 0.30 0.31 0.31 0.31 0.30 0.30 0.29 0.30 0.33 0.45 0.61
0.00 0.00 0.00 0.00 0.00 0.00 0.00 0.00 0.01 0.01 0.02 0.02 0.02 0.02 0.03 0.03 0.04 0.05 0.06 0.07 0.08 0.09 0.10 0.10 0.11 0.13 0.15 0.19 0.23 0.27 0.31 0.35 0.36 0.36 0.38 0.40 0.40 0.40 0.37 0.37 0.37 0.40 0.54
0.00 0.00 0.00 0.00 0.00 0.00 0.00 0.01 0.02 0.03 0.04 0.03 0.03 0.04 0.05 0.07 0.09 0.11 0.12 0.13 0.14 0.15 0.15 0.14 0.14 0.14 0.15 0.18 0.20 0.24 0.28 0.35 0.39 0.41 0.44 0.46 0.46 0.48 0.47 0.48 0.47 0.45 0.49
0.01 0.00 0.00 0.00 0.00 0.01 0.01 0.02 0.04 0.05 0.05 0.05 0.05 0.06 0.09 0.12 0.16 0.19 0.20 0.20 0.20 0.20 0.19 0.20 0.20 0.21 0.24 0.28 0.29 0.28 0.30 0.33 0.36 0.38 0.44 0.49 0.54 0.58 0.56 0.56 0.55 0.50 0.45
0.01 0.01 0.01 0.01 0.01 0.01 0.02 0.03 0.05 0.07 0.07 0.09 0.12 0.14 0.18 0.22 0.25 0.26 0.25 0.24 0.23 0.24 0.24 0.25 0.26 0.30 0.38 0.52 0.56 0.45 0.41 0.38 0.38 0.38 0.42 0.48 0.57 0.64 0.70 0.75 0.67 0.59 0.61
0.01 0.01 0.02 0.02 0.02 0.02 0.03 0.06 0.09 0.13 0.16 0.20 0.23 0.24 0.22 0.22 0.22 0.22 0.23 0.24 0.25 0.27 0.26 0.25 0.27 0.33 0.47 0.79 0.83 0.66 0.53 0.47 0.44 0.42 0.44 0.48 0.60 0.78 0.95 1.06 1.00 0.94 0.95
0.01 0.02 0.03 0.04 0.04 0.06 0.09 0.14 0.20 0.23 0.25 0.27 0.27 0.25 0.23 0.22 0.22 0.22 0.23 0.24 0.24 0.22 0.19 0.18 0.22 0.31 0.48 0.87 0.94 0.76 0.54 0.48 0.48 0.48 0.44 0.42 0.49 0.57 0.72 0.93 1.00 1.05 1.12
0.03 0.04 0.06 0.08 0.10 0.13 0.18 0.22 0.24 0.24 0.26 0.28 0.28 0.27 0.25 0.24 0.22 0.21 0.19 0.18 0.17 0.14 0.11 0.10 0.12 0.19 0.36 0.74 0.83 0.70 0.47 0.38 0.40 0.40 0.36 0.35 0.35 0.38 0.38 0.48 0.55 0.64 0.78
0.08 0.09 0.11 0.12 0.16 0.20 0.24 0.27 0.26 0.26 0.26 0.25 0.23 0.19 0.17 0.16 0.15 0.15 0.14 0.12 0.11 0.09 0.07 0.06 0.06 0.08 0.17 0.51 0.74 0.60 0.33 0.28 0.31 0.31 0.34 0.36 0.34 0.33 0.39 0.46 0.47 0.44 0.48
0.08 0.08 0.08 0.09 0.13 0.19 0.22 0.23 0.21 0.20 0.17 0.15 0.12 0.09 0.07 0.08 0.09 0.09 0.08 0.07 0.06 0.05 0.04 0.04 0.04 0.05 0.08 0.31 0.66 0.63 0.29 0.27 0.26 0.28 0.38 0.43 0.40 0.39 0.51 0.64 0.62 0.46 0.38
0.04 0.04 0.04 0.04 0.07 0.10 0.12 0.12 0.12 0.10 0.09 0.07 0.05 0.03 0.02 0.03 0.04 0.04 0.04 0.04 0.04 0.04 0.03 0.03 0.03 0.04 0.05 0.19 0.55 0.76 0.39 0.31 0.26 0.28 0.38 0.58 0.57 0.54 0.58 0.66 0.67 0.61 0.41
0.03 0.02 0.03 0.04 0.07 0.10 0.11 0.10 0.08 0.05 0.03 0.02 0.01 0.01 0.01 0.01 0.02 0.02 0.02 0.03 0.04 0.04 0.04 0.04 0.03 0.03 0.04 0.09 0.35 0.77 0.66 0.46 0.38 0.37 0.44 0.56 0.55 0.55 0.56 0.62 0.63 0.62 0.58
0.02 0.03 0.03 0.05 0.10 0.12 0.10 0.06 0.04 0.02 0.01 0.00 0.01 0.01 0.01 0.01 0.02 0.02 0.03 0.03 0.04 0.05 0.05 0.06 0.05 0.04 0.04 0.08 0.23 0.53 0.69 0.61 0.45 0.42 0.37 0.44 0.47 0.52 0.55 0.53 0.54 0.57 0.62
0.03 0.04 0.05 0.09 0.12 0.09 0.05 0.03 0.01 0.00 0.00 0.01 0.01 0.01 0.01 0.02 0.02 0.03 0.04 0.05 0.05 0.08 0.10 0.10 0.09 0.07 0.06 0.09 0.22 0.33 0.38 0.46 0.41 0.44 0.57 0.51 0.44 0.41 0.35 0.31 0.37 0.40 0.41
0.05 0.07 0.07 0.09 0.11 0.07 0.02 0.01 0.01 0.01 0.01 0.01 0.01 0.02 0.02 0.02 0.03 0.03 0.04 0.06 0.09 0.20 0.28 0.24 0.20 0.14 0.11 0.19 0.36 0.39 0.30 0.34 0.37 0.36 0.43 0.42 0.32 0.24 0.18 0.16 0.18 0.21 0.28
0.07 0.08 0.09 0.09 0.08 0.04 0.01 0.01 0.02 0.02 0.02 0.02 0.02 0.03 0.03 0.03 0.04 0.04 0.05 0.08 0.10 0.27 0.47 0.42 0.40 0.38 0.36 0.45 0.69 0.67 0.57 0.57 0.57 0.57 0.54 0.43 0.31 0.26 0.21 0.16 0.13 0.15 0.21
0.12 0.12 0.10 0.06 0.03 0.02 0.02 0.02 0.02 0.04 0.04 0.04 0.04 0.05 0.05 0.05 0.06 0.07 0.07 0.08 0.10 0.16 0.20 0.24 0.35 0.34 0.45 0.57 0.56 0.53 0.52 0.53 0.55 0.60 0.57 0.38 0.28 0.25 0.22 0.20 0.17 0.15 0.16